Butte, MT

12:47 AM MDT on June 25, 2017 (GMT -0600)
Mooney

Weather History for KBTM - November, 2012

Change the Weather History Date:

Monday, November 5, 2012

  Actual Average Record
Temperature  
Mean Temperature 48 °F 33 °F  
Max Temperature 62 °F 46 °F 68 °F (1949)
Min Temperature 33 °F 21 °F -19 °F (2003)
Degree Days  
Heating Degree Days 17 32  
Month to date heating degree days 112 154  
Since 1 July heating degree days 1298 1525  
Cooling Degree Days 0 0  
Month to date cooling degree days 0 0  
Year to date cooling degree days 121 81  
Moisture  
Dew Point 32 °F    
Average Humidity 56    
Maximum Humidity 82    
Minimum Humidity 29    
Precipitation  
Precipitation 0.00 in 0.02 in 0.25 in (1911)
Month to date precipitation T 0.10  
Year to date precipitation 7.79 11.76  
Sea Level Pressure  
Sea Level Pressure 30.24 in    
Wind  
Wind Speed 7 mph (WNW)    
Max Wind Speed 25 mph    
Max Gust Speed 38 mph    
Visibility 10 miles    
Events      
T = Trace of Precipitation, MM = Missing Value Source: NWS Daily Summary

Daily Weather History Graph

Daily Weather History Graph

Search for Another Location

Airport or City:

Trip Planner

Search our weather history database for the weather conditions in past years. The results will help you decide how hot, cold, wet, or windy it might be!

Date:

Astronomy

Nov. 05, 2012 Rise Set
Actual Time 7:16 AM MST 5:09 PM MST
Civil Twilight 6:45 AM MST 5:41 PM MST
Nautical Twilight 6:09 AM MST 6:16 PM MST
Astronomical Twilight 5:34 AM MST 6:51 PM MST
Moon 10:51 PM MST (11/5) 12:39 PM MST (11/5)
Length of Visible Light 10h 55m
Length of Day
9h 52m
Waning Gibbous, 62% of the Moon is Illuminated
Nov 5
Waning Gibbous
Nov 6
Last Quarter
Nov 13
New
Nov 20
First Quarter
Nov 28
Full

Hourly Weather History & Observations

Time (MST) Temp. Windchill Dew Point Humidity Pressure Visibility Wind Dir Wind Speed Gust Speed Precip Events Conditions
12:53 AM 43.0 °F 41.3 °F 35.1 °F 74% 30.33 in 10.0 mi NNE 3.5 mph - N/A   Clear
1:53 AM 42.8 °F 40.1 °F 33.8 °F 70% 30.38 in 10.0 mi NNW 4.6 mph - N/A   Clear
2:53 AM 37.0 °F 33.3 °F 32.0 °F 82% 30.33 in 10.0 mi Variable 4.6 mph - N/A   Clear
3:53 AM 37.0 °F - 32.0 °F 82% 30.30 in 10.0 mi Calm Calm - N/A   Mostly Cloudy
4:53 AM 39.0 °F 35.7 °F 34.0 °F 82% 30.30 in 10.0 mi North 4.6 mph - N/A   Overcast
5:53 AM 46.9 °F - 36.0 °F 66% 30.24 in 10.0 mi Variable 4.6 mph - N/A   Mostly Cloudy
6:53 AM 48.9 °F - 36.0 °F 61% 30.23 in 10.0 mi WSW 8.1 mph 16.1 mph N/A   Clear
7:53 AM 50.0 °F - 37.0 °F 61% 30.21 in 10.0 mi Variable 4.6 mph - N/A   Clear
8:53 AM 52.0 °F - 37.0 °F 57% 30.20 in 10.0 mi NNW 12.7 mph 19.6 mph N/A   Partly Cloudy
9:53 AM 55.0 °F - 37.9 °F 53% 30.22 in 10.0 mi West 8.1 mph - N/A   Scattered Clouds
10:53 AM 59.0 °F - 36.0 °F 42% 30.19 in 10.0 mi West 18.4 mph 27.6 mph N/A   Clear
11:53 AM 60.1 °F - 34.0 °F 38% 30.14 in 10.0 mi West 20.7 mph 33.4 mph N/A   Clear
12:53 PM 62.1 °F - 33.1 °F 34% 30.13 in 10.0 mi West 17.3 mph 33.4 mph N/A   Clear
1:53 PM 62.1 °F - 30.9 °F 31% 30.13 in 10.0 mi WNW 11.5 mph 26.5 mph N/A   Partly Cloudy
2:53 PM 61.0 °F - 28.9 °F 30% 30.17 in 10.0 mi NW 19.6 mph 24.2 mph N/A   Clear
3:53 PM 57.9 °F - 30.0 °F 35% 30.21 in 10.0 mi NW 11.5 mph - N/A   Clear
4:53 PM 55.0 °F - 28.0 °F 35% 30.22 in 10.0 mi Calm Calm - N/A   Clear
5:53 PM 52.0 °F - 27.0 °F 38% 30.21 in 10.0 mi WNW 5.8 mph - N/A   Clear
6:53 PM 50.0 °F - 28.9 °F 44% 30.22 in 10.0 mi Variable 3.5 mph - N/A   Clear
7:53 PM 48.0 °F - 28.9 °F 48% 30.24 in 10.0 mi Calm Calm - N/A   Clear
8:53 PM 44.1 °F 41.5 °F 28.9 °F 55% 30.26 in 10.0 mi NNE 4.6 mph - N/A   Clear
9:53 PM 37.0 °F 33.3 °F 28.0 °F 70% 30.27 in 10.0 mi SE 4.6 mph - N/A   Clear
10:53 PM 35.1 °F 30.1 °F 27.0 °F 72% 30.25 in 10.0 mi SE 5.8 mph - N/A   Clear
11:53 PM 33.1 °F - 27.0 °F 78% 30.27 in 10.0 mi Calm Calm - N/A   Clear